Weather History for Bentonville, AR

Change the Weather History Date:

Tuesday, September 25, 2012

  Actual Average Record
Temperature  
Mean Temperature - -  
Max Temperature - 76 °F 90 °F (1958)
Min Temperature - 53 °F 30 °F (1989)
Moisture  
Dew Point -    
Average Humidity    
Maximum Humidity    
Minimum Humidity    
Precipitation  
Precipitation 0.00 in - - ()
Sea Level Pressure  
Sea Level Pressure 29.92 in    
Wind  
Wind Speed 10 mph (SSW)    
Max Wind Speed 22 mph    
Max Gust Speed 30 mph    
Visibility 10 miles    
Events      
Averages and records for this station are not official NWS values.
T = Trace of Precipitation, MM = Missing Value Source: NWS Daily Summary

Daily Weather History Graph

Daily Weather History Graph

Search for Another Location

Airport:

Trip Planner

Search our weather history database for the weather conditions in past years. The results will help you decide how hot, cold, wet, or windy it might be!

Date:

Astronomy

Sep. 25, 2012 Rise Set
Actual Time 7:07 AM CDT 7:08 PM CDT
Civil Twilight 6:41 AM CDT 7:34 PM CDT
Nautical Twilight 6:11 AM CDT 8:04 PM CDT
Astronomical Twilight 5:41 AM CDT 8:34 PM CDT
Moon 4:28 PM CDT (9/25) 2:36 AM CDT (9/25)
Length of Visible Light 12h 52m
Length of Day
12h 00m
Waxing Gibbous, 80% of the Moon is Illuminated
Sep 25
Waxing Gibbous
Sep 29
Full
Oct 8
Last Quarter
Oct 15
New
Oct 21
First Quarter

Hourly Weather History & Observations

Time (CDT) Temp. Dew Point Humidity Pressure Visibility Wind Dir Wind Speed Gust Speed Precip Events Conditions
12:15 AM - - N/A% 29.94 in 10.0 mi South 8.1 mph - N/A   Clear
12:35 AM - - N/A% 29.94 in 10.0 mi South 9.2 mph - N/A   Clear
12:55 AM - - N/A% 29.94 in 10.0 mi South 8.1 mph - N/A   Clear
1:15 AM - - N/A% 29.94 in 10.0 mi South 8.1 mph - N/A   Clear
1:35 AM - - N/A% 29.94 in 10.0 mi South 9.2 mph 16.1 mph N/A   Clear
2:15 AM - - N/A% 29.93 in 10.0 mi South 11.5 mph 16.1 mph N/A   Clear
2:35 AM - - N/A% 29.93 in 10.0 mi SSW 12.7 mph 16.1 mph N/A   Clear
2:55 AM - - N/A% 29.92 in 10.0 mi SSW 9.2 mph 18.4 mph N/A   Clear
3:15 AM - - N/A% 29.92 in 10.0 mi SSW 10.4 mph - N/A   Clear
3:35 AM - - N/A% 29.92 in 10.0 mi SSW 8.1 mph - N/A   Clear
3:55 AM - - N/A% 29.92 in 10.0 mi SSW 10.4 mph 16.1 mph N/A   Clear
4:15 AM - - N/A% 29.92 in 10.0 mi SSW 10.4 mph - N/A   Clear
4:35 AM - - N/A% 29.92 in 10.0 mi SSW 10.4 mph - N/A   Clear
4:55 AM - - N/A% 29.92 in 10.0 mi SSW 9.2 mph - N/A   Clear
5:15 AM - - N/A% 29.92 in 10.0 mi South 9.2 mph - N/A   Clear
5:35 AM - - N/A% 29.92 in 10.0 mi South 10.4 mph 16.1 mph N/A   Clear
5:55 AM - - N/A% 29.92 in 10.0 mi South 9.2 mph - N/A   Clear
6:15 AM - - N/A% 29.92 in 10.0 mi SSW 10.4 mph - N/A   Clear
6:35 AM - - N/A% 29.93 in 10.0 mi SSW 10.4 mph - N/A   Clear
6:55 AM - - N/A% 29.93 in 10.0 mi SSW 10.4 mph 17.3 mph N/A   Clear
7:15 AM - - N/A% 29.94 in 10.0 mi SSW 10.4 mph - N/A   Clear
7:35 AM - - N/A% 29.94 in 10.0 mi SSW 9.2 mph - N/A   Clear
7:55 AM - - N/A% 29.94 in 10.0 mi SSW 9.2 mph - N/A   Clear
8:15 AM - - N/A% 29.95 in 10.0 mi SSW 10.4 mph - N/A   Clear
8:35 AM - - N/A% 29.95 in 10.0 mi SSW 12.7 mph - N/A   Clear
8:55 AM - - N/A% 29.95 in 10.0 mi SSW 15.0 mph - N/A   Clear
9:15 AM - - N/A% 29.95 in 10.0 mi SSW 11.5 mph 17.3 mph N/A   Clear
9:35 AM - - N/A% 29.96 in 10.0 mi SSW 15.0 mph 18.4 mph N/A   Clear
9:55 AM - - N/A% 29.96 in 10.0 mi SW 12.7 mph 19.6 mph N/A   Clear
10:15 AM - - N/A% 29.96 in 10.0 mi SSW 10.4 mph 20.7 mph N/A   Clear
10:35 AM - - N/A% 29.96 in 10.0 mi SSW 15.0 mph 24.2 mph N/A   Clear
10:55 AM - - N/A% 29.96 in 10.0 mi SSW 16.1 mph 23.0 mph N/A   Clear
11:15 AM - - N/A% 29.96 in 10.0 mi SSW 13.8 mph 23.0 mph N/A   Clear
11:35 AM - - N/A% 29.95 in 10.0 mi SW 17.3 mph 25.3 mph N/A   Clear
11:55 AM - - N/A% 29.95 in 10.0 mi SW 21.9 mph 29.9 mph N/A   Clear
12:15 PM - - N/A% 29.94 in 10.0 mi SW 13.8 mph 20.7 mph N/A   Clear
12:35 PM - - N/A% 29.94 in 10.0 mi SSW 16.1 mph 23.0 mph N/A   Clear
12:55 PM - - N/A% 29.94 in 10.0 mi SW 15.0 mph 24.2 mph N/A   Clear
1:15 PM - - N/A% 29.93 in 10.0 mi SW 17.3 mph 24.2 mph N/A   Clear
2:15 PM - - N/A% 29.90 in 10.0 mi SSW 15.0 mph 24.2 mph N/A   Clear
2:35 PM - - N/A% 29.90 in 10.0 mi South 15.0 mph 20.7 mph N/A   Clear
2:55 PM - - N/A% 29.89 in 10.0 mi SSW 11.5 mph 21.9 mph N/A   Clear
3:15 PM - - N/A% 29.89 in 10.0 mi SSW 10.4 mph - N/A   Clear
3:35 PM - - N/A% 29.89 in 10.0 mi South 10.4 mph 19.6 mph N/A   Clear
3:55 PM - - N/A% 29.88 in 10.0 mi SSW 11.5 mph 18.4 mph N/A   Clear
4:15 PM - - N/A% 29.88 in 10.0 mi SSW 17.3 mph 23.0 mph N/A   Clear
4:35 PM - - N/A% 29.88 in 10.0 mi SSW 15.0 mph 20.7 mph N/A   Clear
4:55 PM - - N/A% 29.88 in 10.0 mi SSW 12.7 mph 18.4 mph N/A   Clear
5:15 PM - - N/A% 29.87 in 10.0 mi SSW 12.7 mph 19.6 mph N/A   Clear
5:35 PM - - N/A% 29.87 in 10.0 mi SSW 12.7 mph 19.6 mph N/A   Clear
5:55 PM - - N/A% 29.87 in 10.0 mi SSW 12.7 mph 17.3 mph N/A   Clear
6:15 PM - - N/A% 29.86 in 10.0 mi South 9.2 mph - N/A   Clear
6:35 PM - - N/A% 29.86 in 10.0 mi SSW 8.1 mph - N/A   Clear
6:55 PM - - N/A% 29.87 in 10.0 mi SSW 6.9 mph - N/A   Clear
7:15 PM - - N/A% 29.87 in 10.0 mi South 4.6 mph - N/A   Clear
7:55 PM - - N/A% 29.86 in 10.0 mi SSE 6.9 mph - N/A   Clear
8:15 PM - - N/A% 29.86 in 10.0 mi South 9.2 mph - N/A   Clear
8:35 PM - - N/A% 29.87 in 10.0 mi South 8.1 mph - N/A   Clear
8:55 PM - - N/A% 29.88 in 10.0 mi South 5.8 mph - N/A   Clear
9:15 PM - - N/A% 29.89 in 10.0 mi SSE 4.6 mph - N/A   Clear
9:35 PM - - N/A% 29.90 in 10.0 mi SSE 3.5 mph - N/A   Clear
9:55 PM - - N/A% 29.90 in 10.0 mi South 5.8 mph - N/A   Clear
10:15 PM - - N/A% 29.91 in 10.0 mi South 6.9 mph - N/A   Clear
10:35 PM - - N/A% 29.91 in 10.0 mi South 6.9 mph - N/A   Clear
10:55 PM - - N/A% 29.91 in 10.0 mi South 10.4 mph - N/A   Clear
11:35 PM - - N/A% 29.91 in 10.0 mi South 9.2 mph 16.1 mph N/A   Clear